Flag for U.S.A. Weather past 2 weeks in Wright, Florida, U.S.A.

Now
82 °F

Scattered clouds.


Feels Like: 85 °F
Forecast: 76 / 87 °F
Wind: 2 mph from North

Location: Hurlburt Field

Current Time: Jul 25, 2014 at 8:14:01 PM

Latest Report: Jul 25, 2014 at 6:58 PM


Visibility: 10 mi

Pressure: 29.97 "Hg

Humidity: 67%

Dew point: 70 °F

Location of WrightLocation

Historic Weather in Wright — Graph

°F

Wright temperature yesterday

Maximum temperature yesterday: 87 °F (at 10:58 AM)
Minimum temperature yesterday: 75 °F (at 5:58 AM)
Average temperature yesterday: 82 °F

Past Weeks' High & Low Weather Summary

 TemperatureHumidityPressure
High90 °F (Jul 14, 2:58 PM)89% (Jul 13, 7:04 AM)30.14 "Hg (Jul 13, 7:04 AM)
Low65 °F (Jul 17, 5:58 AM)39% (Jul 16, 6:58 PM)29.87 "Hg (Jul 15, 6:58 PM)
Average80 °F71%30.01 "Hg
* Reported Jul 10 6:58 PM — Jul 25 6:58 PM, Wright, Weather by CustomWeather, © 2014

Note: Actual official high and low records may vary slightly from our data, if they occured in-between our weather recording intervals... More about our weather records

Advertising

Wright weather history for previous 24 hours

 ConditionsComfort  
Time TempWeatherWind HumidityBarometerVisibility
6:58 PM
Jul 25
82 °FScattered clouds.2 mph67%29.97 "Hg10 mi
5:58 PM85 °FScattered clouds.10 mph71%29.95 "Hg10 mi
4:58 PM85 °FScattered clouds.13 mph70%29.97 "Hg10 mi
3:58 PM86 °FScattered clouds.12 mph67%29.96 "Hg10 mi
2:58 PM85 °FPassing clouds.10 mph67%29.98 "Hg10 mi
1:58 PM83 °FSunny.6 mph72%30.00 "Hg10 mi
12:58 PM84 °FPassing clouds.8 mph67%30.00 "Hg10 mi
11:58 AM88 °FPassing clouds.13 mph58%30.03 "Hg10 mi
10:58 AM86 °FPassing clouds.13 mph62%30.03 "Hg10 mi
9:58 AM86 °FPassing clouds.9 mph64%30.03 "Hg10 mi
9:03 AM84 °FBroken clouds.8 mph62%30.03 "Hg10 mi
8:58 AM85 °FPartly sunny.8 mph64%30.03 "Hg10 mi
7:58 AM83 °FSunny.6 mph70%30.02 "Hg10 mi
6:58 AM81 °FSunny.No wind74%30.01 "Hg10 mi
5:58 AM79 °FClear.No wind73%30.00 "Hg10 mi
4:58 AM81 °FPassing clouds.9 mph73%29.98 "Hg10 mi
3:58 AM81 °FClear.3 mph73%29.98 "Hg10 mi
2:58 AM81 °FClear.1 mph73%29.98 "Hg10 mi
1:56 AM82 °FClear.3 mph73%29.98 "Hg10 mi
12:58 AM82 °FPassing clouds.3 mph72%29.99 "Hg10 mi
11:58 PM
Jul 24
82 °FPassing clouds.6 mph72%30.00 "Hg10 mi
11:03 PM82 °FPassing clouds.7 mph70%30.00 "Hg10 mi
10:58 PM82 °FPartly cloudy.6 mph73%30.00 "Hg10 mi
9:58 PM82 °FPassing clouds.8 mph72%29.99 "Hg10 mi
8:58 PM82 °FClear.6 mph68%29.98 "Hg10 mi
Weather by CustomWeather, © 2014

See weather overviewHow to use our weather pages